This demonstration page uses our WeatherBlox Daily Observations layout. Learn more.

Left ArrowRight Arrow

Hourly Observations for October 7, 2022

Temp ( °F °C ) Dew Point ( °F °C ) Humidity (%) Winds ( mph kmh ) Pressure ( in mb ) Visibility ( mi km ) Precip ( " mm )
12:55 am 00:55 Cloudy 50 10.1 30 -1.3 45 45 N 8 13 30.45 1031 10 16 0.00 0.00
1:55 am 01:55 Cloudy 50 9.9 29 -1.5 45 45 N 7 11 30.45 1031 10 16 0.00 0.00
2:55 am 02:55 Cloudy 49 9.5 30 -1.3 47 47 N 8 13 30.47 1032 10 16 0.00 0.00
3:55 am 03:55 Cloudy 48 9 30 -1.1 49 49 N 8 13 30.48 1032 10 16 0.00 0.00
4:55 am 04:55 Mostly Clear 46 8 31 -0.5 55 55 NNW 7 11 30.50 1033 10 16 0.00 0.00
5:55 am 05:55 Partly Cloudy 45 7.3 31 -0.4 58 58 N 8 13 30.53 1034 10 16 0.00 0.00
6:55 am 06:55 Clear 43 6.2 31 -0.5 62 62 N 10 17 30.54 1034 10 16 0.00 0.00
7:55 am 07:55 Mostly Cloudy 43 6.1 32 -0.2 64 64 N 9 15 30.56 1035 10 16 0.00 0.00
8:55 am 08:55 Mostly Sunny 44 6.9 32 0.1 62 62 N 8 13 30.58 1036 10 16 0.00 0.00
9:55 am 09:55 Mostly Cloudy 46 7.7 33 0.4 60 60 N 10 17 30.59 1036 10 16 0.00 0.00
10:55 am 10:55 Sunny 50 10 34 0.9 53 53 NNE 7 11 30.59 1036 10 16 0.00 0.00
11:55 am 11:55 Mostly Sunny 52 10.9 33 0.3 48 48 N 6 9 30.58 1036 10 16 0.00 0.00
12:55 pm 12:55 Mostly Cloudy 52 11.1 32 0.2 47 47 N 9 15 30.57 1035 10 16 0.00 0.00
1:55 pm 13:55 Mostly Cloudy 55 12.5 32 -0.1 42 42 N 9 15 30.55 1035 10 16 0.00 0.00
2:55 pm 14:55 Partly Cloudy 54 12.3 28 -2 37 37 NNW 6 9 30.52 1034 10 16 0.00 0.00
3:55 pm 15:55 Mostly Sunny 57 13.8 28 -2.2 33 33 ENE 3 6 30.51 1033 10 16 0.00 0.00
4:55 pm 16:55 Mostly Sunny 58 14.2 27 -2.7 31 31 N 9 15 30.50 1033 10 16 0.00 0.00
5:55 pm 17:55 Sunny 57 13.7 26 -3.1 31 31 NNW 7 11 30.50 1033 10 16 0.00 0.00
6:55 pm 18:55 Sunny 53 11.4 26 -3.5 35 35 N 6 9 30.51 1033 10 16 0.00 0.00
7:55 pm 19:55 Clear 48 9.1 26 -3.1 42 42 N 6 9 30.52 1034 10 16 0.00 0.00
8:55 pm 20:55 Clear 48 9 26 -3.2 42 42 N 3 6 30.52 1034 10 16 0.00 0.00
9:55 pm 21:55 Clear 44 6.5 29 -1.6 56 56 Calm 30.53 1034 10 16 0.00 0.00
10:55 pm 22:55 Clear 43 6.2 30 -1.2 59 59 W 3 6 30.54 1034 10 16 0.00 0.00
11:55 pm 23:55 Clear 41 4.9 30 -0.9 66 66 Calm 30.54 1034 10 16 0.00 0.00

Powered by AerisWeather